Simultaneous Nadir Overpasses (SNOs) Predictions

Prediction of SNOs between GOES-17 and METOP-C Satellite Orbit:

Table of predicted SNOs for the next 14.0 days since TLE Epoch: 6/1/2024
Index Date Time (GOES-17) GOES-17 Lat,Lon METOP-C Lat,Lon Distance(km) Time Diff (sec)
1 06/01/2024 16:33:26 0.01,-104.72 0.31,-106.15 162.80 80
2 06/02/2024 16:15:27 0.01,-104.72 -0.76,-101.15 406.64 80
3 06/04/2024 04:34:29 -0.01,-104.71 -0.24,-105.75 118.26 80
4 06/05/2024 04:11:10 -0.01,-104.71 0.90,-100.76 450.97 80
5 06/06/2024 16:30:02 0.01,-104.73 0.15,-105.31 66.84 80
6 06/09/2024 04:31:05 0.00,-104.72 -0.06,-104.91 22.87 80
7 06/11/2024 16:29:17 -0.02,-104.74 -0.05,-104.48 29.02 80
8 06/13/2024 04:48:20 0.03,-104.74 -0.93,-109.08 495.37 80
9 06/14/2024 04:25:00 0.03,-104.74 0.16,-104.08 74.38 80
